Weather History for KCNY - January, 2014

Change the Weather History Date:

Thursday, January 9, 2014

  Actual Average Record
Temperature  
Mean Temperature 18 °F 25 °F  
Max Temperature 28 °F 37 °F 57 °F (1962)
Min Temperature 8 °F 14 °F -7 °F (2013)
Degree Days  
Heating Degree Days 47 40  
Month to date heating degree days 427 360  
Since 1 July heating degree days 3246 2757  
Cooling Degree Days 0 0  
Month to date cooling degree days 0 0  
Year to date cooling degree days 0 0  
Moisture  
Dew Point 15 °F    
Average Humidity 84    
Maximum Humidity 100    
Minimum Humidity 68    
Precipitation  
Precipitation 0.00 in 0.03 in 0.20 in (1977)
Month to date precipitation 0.00 0.23  
Year to date precipitation 0.00 0.23  
Sea Level Pressure  
Sea Level Pressure 30.14 in    
Wind  
Wind Speed 4 mph (NW)    
Max Wind Speed 13 mph    
Max Gust Speed 15 mph    
Visibility 10 miles    
Events      
T = Trace of Precipitation, MM = Missing Value Source: NWS Daily Summary

Daily Weather History Graph

Daily Weather History Graph

Search for Another Location

Airport or City:

Trip Planner

Search our weather history database for the weather conditions in past years. The results will help you decide how hot, cold, wet, or windy it might be!

Date:

Astronomy

Jan. 09, 2014 Rise Set
Actual Time 7:37 AM MST 5:15 PM MST
Civil Twilight 7:07 AM MST 5:44 PM MST
Nautical Twilight 6:34 AM MST 6:17 PM MST
Astronomical Twilight 6:02 AM MST 6:50 PM MST
Moon 12:43 PM MST (1/9) 1:49 AM MST (1/9)
Length of Visible Light 10h 37m
Length of Day
9h 38m
Waxing Gibbous, 66% of the Moon is Illuminated
Jan 9
Waxing Gibbous
Jan 15
Full
Jan 23
Last Quarter
Jan 30
New
Feb 6
First Quarter

Hourly Weather History & Observations

Time (MST) Temp. Windchill Dew Point Humidity Pressure Visibility Wind Dir Wind Speed Gust Speed Precip Events Conditions
12:53 AM 12.0 °F - 8.1 °F 84% 30.26 in 10.0 mi Calm Calm - N/A   Clear
1:53 AM 14.0 °F - 10.9 °F 88% 30.23 in 10.0 mi Calm Calm - N/A   Clear
2:53 AM 10.9 °F - 7.0 °F 84% 30.22 in 10.0 mi Calm Calm - N/A   Clear
3:53 AM 14.0 °F - 10.0 °F 84% 30.20 in 10.0 mi Calm Calm - N/A   Clear
4:53 AM 15.1 °F - 10.9 °F 84% 30.19 in 10.0 mi Calm Calm - N/A   Mostly Cloudy
5:53 AM 14.0 °F - 10.0 °F 84% 30.18 in 10.0 mi Calm Calm - N/A   Clear
6:53 AM 10.0 °F - 8.1 °F 92% 30.19 in 10.0 mi Calm Calm - N/A   Clear
7:53 AM 10.0 °F 3.6 °F 7.0 °F 87% 30.19 in 10.0 mi WSW 3.5 mph - N/A   Clear
8:53 AM 16.0 °F - 12.0 °F 84% 30.19 in 10.0 mi Calm Calm - N/A   Partly Cloudy
9:53 AM 19.9 °F 13.4 °F 16.0 °F 85% 30.18 in 10.0 mi North 4.6 mph - N/A   Scattered Clouds
10:53 AM 26.1 °F - 18.0 °F 71% 30.13 in 10.0 mi Calm Calm - N/A   Mostly Cloudy
11:53 AM 24.1 °F 12.5 °F 18.0 °F 77% 30.14 in 10.0 mi NNW 12.7 mph - N/A   Scattered Clouds
12:53 PM 26.1 °F 16.2 °F 21.0 °F 81% 30.10 in 10.0 mi NNW 10.4 mph - N/A   Overcast
1:53 PM 26.1 °F 17.6 °F 21.9 °F 84% 30.05 in 10.0 mi NNW 8.1 mph - N/A   Mostly Cloudy
2:53 PM 27.0 °F 19.5 °F 23.0 °F 85% 30.06 in 10.0 mi NNW 6.9 mph - N/A   Overcast
4:53 PM 27.0 °F 20.5 °F 23.0 °F 85% 30.04 in 10.0 mi NNW 5.8 mph - N/A   Overcast
5:53 PM 21.0 °F 10.6 °F 19.0 °F 92% 30.07 in 10.0 mi NW 9.2 mph - N/A   Mostly Cloudy
6:53 PM 21.0 °F 16.2 °F 19.9 °F 96% 30.08 in 10.0 mi NW 3.5 mph - N/A   Partly Cloudy
7:53 PM 19.9 °F 12.1 °F 19.0 °F 96% 30.12 in 10.0 mi NW 5.8 mph - N/A   Overcast
8:53 PM 21.0 °F 9.9 °F 19.0 °F 92% 30.11 in 10.0 mi NW 10.4 mph - N/A   Overcast
9:53 PM 21.9 °F 15.7 °F 17.1 °F 82% 30.10 in 10.0 mi NW 4.6 mph - N/A   Clear
10:53 PM 19.9 °F - 17.1 °F 89% 30.10 in 10.0 mi Calm Calm - N/A   Clear
11:53 PM 19.0 °F - 15.1 °F 85% 30.10 in 10.0 mi Calm Calm - N/A   Mostly Cloudy